スペースウォッチ彗星

C/2006 U6 ( Spacewatch )

English version
Home page
Total 6,336 html files since Dec. 4, 1995
Updated on March 16, 2008

---------------------------------------------------------------------

・ プロフィール

発見日 2006年10月19日
発見光度 19.8等
発見者 Spacewatch program

・ 写真集

・ 軌道要素

Epoch 2008 June 23.0 TT = JDT 2454640.5
T 2008 June 5.47776 TT                                  MPC
q   2.4983249            (2000.0)            P               Q
z  +0.0004996      Peri.  276.60003     -0.11522320     -0.99333443
 +/-0.0000058      Node   180.18489     +0.47459460     -0.05789314
e   0.9987518      Incl.   84.87766     -0.87263026     +0.09967498
From 136 observations 2006 Sept. 15-2007 Aug. 5, mean residual 0".48.

・ 星図

・ 光度変化

        m1 = 7.5 + 5 logΔ + 10.0 log r

---------------------------------------------------------------------

軌道要素はM.P.E.C. 2007-P27に掲載されたものです。
星図は StellaNavigator Ver.2.0 for Windows (アストロアーツ 編著 / アスキー出版局刊) で作成したものです。
光度グラフはComet for Windowsで作成したものです。

---------------------------------------------------------------------

Copyright(C) 1995-2008 Seiichi Yoshida (comet@aerith.net). All rights reserved.